TimeEST,TemperatureF,Dew PointF,Humidity,Sea Level PressureIn,VisibilityMPH,Wind Direction,Wind SpeedMPH,Gust SpeedMPH,PrecipitationIn,Events,Conditions,WindDirDegrees,DateUTC
12:56 AM,23.0,11.1,60,30.12,10.0,West,6.9,-,N/A,,Clear,270,2014-02-24 05:56:00
1:56 AM,22.1,9.1,58,30.13,10.0,West,8.1,-,N/A,,Clear,260,2014-02-24 06:56:00
2:56 AM,21.0,8.1,57,30.13,10.0,West,8.1,-,N/A,,Clear,260,2014-02-24 07:56:00
3:56 AM,20.1,9.1,62,30.12,10.0,WSW,5.8,-,N/A,,Clear,240,2014-02-24 08:56:00
4:56 AM,20.1,10.0,65,30.12,10.0,West,9.2,-,N/A,,Clear,270,2014-02-24 09:56:00
5:56 AM,19.0,10.0,68,30.14,10.0,WSW,8.1,-,N/A,,Clear,250,2014-02-24 10:56:00
6:56 AM,19.4,10.4,68,30.05,10.0,WSW,10.4,-,N/A,Snow,Light Snow,250,2014-02-24 11:56:00
7:56 AM,20.1,10.0,65,30.16,10.0,WSW,5.8,-,0.00,,Mostly Cloudy,240,2014-02-24 12:56:00
8:56 AM,21.0,9.1,60,30.18,10.0,West,10.4,-,0.00,,Overcast,270,2014-02-24 13:56:00
9:56 AM,19.4,12.2,74,30.10,9.0,West,10.4,-,N/A,Snow,Light Snow,260,2014-02-24 14:56:00
10:56 AM,23.0,10.0,58,30.19,10.0,West,15.0,20.7,0.00,,Mostly Cloudy,260,2014-02-24 15:56:00
11:56 AM,24.1,11.1,58,30.19,10.0,WSW,15.0,19.6,0.00,,Mostly Cloudy,250,2014-02-24 16:56:00
12:56 PM,24.8,8.6,50,30.10,10.0,West,15.0,19.6,N/A,,Mostly Cloudy,260,2014-02-24 17:56:00
1:56 PM,25.2,10.0,53,30.19,10.0,WSW,12.7,19.6,N/A,,Mostly Cloudy,250,2014-02-24 18:56:00
2:56 PM,25.2,9.1,51,30.19,10.0,West,12.7,24.2,N/A,,Mostly Cloudy,260,2014-02-24 19:56:00
3:56 PM,26.6,10.4,51,30.10,10.0,West,17.3,27.6,N/A,,Mostly Cloudy,260,2014-02-24 20:56:00
4:56 PM,26.1,9.1,49,30.20,10.0,WSW,15.0,-,N/A,,Scattered Clouds,240,2014-02-24 21:56:00
5:56 PM,25.2,7.2,46,30.21,10.0,West,17.3,25.3,N/A,,Clear,260,2014-02-24 22:56:00
6:56 PM,23.0,7.2,51,30.23,10.0,WSW,9.2,-,N/A,,Clear,250,2014-02-24 23:56:00
7:56 PM,23.0,6.1,48,30.23,10.0,West,9.2,-,N/A,,Clear,260,2014-02-25 00:56:00
8:56 PM,21.0,7.2,55,30.23,10.0,Calm,Calm,-,N/A,,Clear,0,2014-02-25 01:56:00
9:56 PM,19.0,7.2,60,30.24,10.0,Calm,Calm,-,N/A,,Clear,0,2014-02-25 02:56:00
10:56 PM,18.1,7.2,62,30.22,10.0,Calm,Calm,-,N/A,,Clear,0,2014-02-25 03:56:00
11:56 PM,18.1,7.2,62,30.21,10.0,Calm,Calm,-,N/A,,Clear,0,2014-02-25 04:56:00